sat.trackr.live / text

‹ back to catalog

GRAVITAS

NORAD 68495 · 2026-067CH

PAYLOAD ACTIVE UNKNOWN

§ Identity

Operator
Country
US
Launch date
2026-03-30
Launch site
AFWTR
Launch vehicle
Mass (kg)
RCS (m²)

External: N2YO · Heavens-Above · Gunter

§ Orbital elements

Epoch: 2026-09-20T04:00:03.000096Z

Period
98.42 min
Inclination
97.7348°
Eccentricity
0.0092765
Mean motion
14.63087203 rev/d
Perigee alt
617.7 km
Apogee alt
748.7 km
Semi-major
7,061.4 km
B*
1.3486e-2
RAAN
215.2688°
Arg perigee
352.6502°
Mean anomaly
240.8281°
Rev number
406

§ Raw data

GRAVITAS1 68495U 26067CH  26263.16670139  .00074384  00000+0  13486-1 0  99932 68495  97.7348 215.2688 0092765 352.6502 240.8281 14.63087203  4065

JSON: /api/v1/satellites/68495 · /tle

For live sub-satellite position, see the globe view (requires WebGL).

§ Visibility from observer

Set your observer location to see the next 7 days of passes ≥ 10°. The values pass through the URL so the page stays shareable.

No JS? Fill the form by hand. The geolocation button needs JavaScript.